| time (UTC) | temp F | wind direction | speed MPH | gust MPH | rain 1hr in | rain 24hr in | rain mn in | humidity % | barometer mb |
| 20260508203038 | 56 | 208 | 0.0 | 4.0 | 0.00 | 0.11 | 0.08 | 86 | 1009.8 |
| 20260508201810 | 56 | 222 | 1.0 | 11.0 | 0.00 | 0.10 | 0.06 | 84 | 1010.1 |
| 20260508200602 | 56 | 258 | 0.0 | 8.0 | 0.05 | 0.10 | 0.06 | 82 | 1010.2 |
| 20260508195403 | 58 | 244 | 3.0 | 18.0 | 0.00 | 0.09 | 0.06 | 79 | 1010.2 |
| 20260508194153 | 59 | 62 | 3.0 | 18.0 | 0.00 | 0.08 | 0.05 | 78 | 1010.2 |
| 20260508192938 | 60 | 80 | 0.0 | 7.0 | 0.00 | 0.08 | 0.05 | 78 | 1010.1 |
| 20260508191712 | 61 | 268 | 0.0 | 7.0 | 0.00 | 0.08 | 0.05 | 73 | 1010.2 |
| 20260508190517 | 61 | 103 | 0.0 | 2.0 | 0.00 | 0.08 | 0.05 | 73 | 1010.2 |
| 20260508185345 | 61 | 248 | 0.0 | 11.0 | 0.00 | 0.08 | 0.05 | 70 | 1010.2 |
| 20260508184156 | 62 | 155 | 1.0 | 11.0 | 0.00 | 0.08 | 0.05 | 70 | 1010.4 |
| 20260508182941 | 62 | 37 | 0.0 | 7.0 | 0.00 | 0.08 | 0.05 | 68 | 1010.6 |
| 20260508181750 | 62 | 111 | 0.0 | 4.0 | 0.00 | 0.08 | 0.05 | 66 | 1010.6 |
| 20260508180555 | 60 | 302 | 0.0 | 3.0 | 0.00 | 0.08 | 0.05 | 70 | 1010.9 |
| 20260508175343 | 60 | 114 | 0.0 | 3.0 | 0.00 | 0.08 | 0.05 | 71 | 1011.2 |
| 20260508174213 | 59 | 107 | 0.0 | 4.0 | 0.00 | 0.08 | 0.05 | 73 | 1011.4 |
| 20260508173032 | 58 | 25 | 0.0 | 3.0 | 0.00 | 0.08 | 0.05 | 75 | 1011.5 |
| 20260508171801 | 57 | 229 | 0.0 | 0.0 | 0.00 | 0.08 | 0.05 | 80 | 1011.8 |
| 20260508170526 | 56 | 230 | 0.0 | 2.0 | 0.00 | 0.08 | 0.05 | 79 | 1012.1 |
| 20260508165340 | 55 | 238 | 0.0 | 0.0 | 0.00 | 0.08 | 0.05 | 80 | 1012.3 |
| 20260508164210 | 55 | 193 | 0.0 | 0.0 | 0.00 | 0.08 | 0.05 | 83 | 1012.5 |
| 20260508163008 | 54 | 193 | 0.0 | 0.0 | 0.00 | 0.08 | 0.05 | 83 | 1012.9 |
| 20260508161828 | 54 | 193 | 0.0 | 0.0 | 0.00 | 0.08 | 0.05 | 84 | 1012.8 |
| 20260508160625 | 54 | 78 | 0.0 | 6.0 | 0.00 | 0.08 | 0.05 | 83 | 1012.7 |
| 20260508155429 | 56 | 136 | 1.0 | 4.0 | 0.00 | 0.08 | 0.05 | 81 | 1012.5 |
| 20260508154159 | 54 | 138 | 1.0 | 6.0 | 0.00 | 0.08 | 0.05 | 84 | 1012.7 |
| 20260508152949 | 53 | 200 | 0.0 | 4.0 | 0.00 | 0.08 | 0.05 | 86 | 1012.8 |
| 20260508151759 | 52 | 98 | 1.0 | 4.0 | 0.00 | 0.08 | 0.05 | 87 | 1012.8 |
| 20260508150546 | 52 | 201 | 0.0 | 4.0 | 0.00 | 0.08 | 0.05 | 88 | 1012.9 |
| 20260508145328 | 50 | 142 | 0.0 | 4.0 | 0.00 | 0.08 | 0.05 | 89 | 1012.9 |
| 20260508144123 | 50 | 81 | 0.0 | 3.0 | 0.00 | 0.08 | 0.05 | 89 | 1013.3 |
| 20260508142911 | 50 | 94 | 0.0 | 3.0 | 0.04 | 0.08 | 0.05 | 88 | 1013.4 |
| 20260508141723 | 50 | 137 | 0.0 | 3.0 | 0.06 | 0.08 | 0.05 | 88 | 1013.3 |
| 20260508140530 | 50 | 315 | 0.0 | 7.0 | 0.00 | 0.06 | 0.03 | 88 | 1013.7 |
| 20260508135346 | 51 | 140 | 0.0 | 7.0 | 0.00 | 0.05 | 0.02 | 88 | 1013.7 |
| 20260508134132 | 51 | 0 | 0.0 | 1.0 | 0.00 | 0.05 | 0.02 | 88 | 1013.5 |
| 20260508132856 | 51 | 0 | 0.0 | 0.0 | 0.00 | 0.05 | 0.02 | 87 | 1013.3 |
| 20260508131632 | 51 | 268 | 0.0 | 6.0 | 0.00 | 0.04 | 0.01 | 86 | 1013.2 |
| 20260508130453 | 51 | 232 | 0.0 | 3.0 | 0.00 | 0.04 | 0.01 | 85 | 1013.1 |
| 20260508125310 | 51 | 84 | 0.0 | 1.0 | 0.00 | 0.04 | 0.01 | 85 | 1013.3 |
| 20260508124117 | 51 | 245 | 0.0 | 6.0 | 0.00 | 0.04 | 0.01 | 85 | 1013.3 |
| 20260508122900 | 51 | 70 | 0.0 | 3.0 | 0.00 | 0.04 | 0.01 | 87 | 1013.3 |
| 20260508121645 | 51 | 198 | 0.0 | 2.0 | 0.00 | 0.04 | 0.01 | 87 | 1013.2 |
| 20260508120455 | 50 | 219 | 0.0 | 3.0 | 0.00 | 0.04 | 0.01 | 87 | 1013.1 |
| 20260508115311 | 50 | 238 | 0.0 | 2.0 | 0.00 | 0.04 | 0.01 | 89 | 1013.2 |
| 20260508114106 | 49 | 120 | 0.0 | 2.0 | 0.00 | 0.04 | 0.01 | 89 | 1012.9 |
| 20260508112930 | 48 | 130 | 0.0 | 1.0 | 0.00 | 0.04 | 0.01 | 90 | 1012.9 |
| 20260508111703 | 48 | 227 | 0.0 | 3.0 | 0.00 | 0.04 | 0.01 | 90 | 1012.7 |
| 20260508110441 | 47 | 146 | 0.0 | 2.0 | 0.00 | 0.04 | 0.01 | 90 | 1012.7 |
| 20260508105309 | 47 | 143 | 0.0 | 7.0 | 0.00 | 0.04 | 0.01 | 91 | 1012.7 |
| 20260508104102 | 47 | 69 | 0.0 | 7.0 | 0.00 | 0.04 | 0.01 | 91 | 1012.7 |
| 20260508102905 | 46 | 100 | 0.0 | 1.0 | 0.00 | 0.04 | 0.01 | 91 | 1012.7 |
| 20260508101710 | 45 | 168 | 0.0 | 2.0 | 0.00 | 0.04 | 0.01 | 91 | 1012.6 |
| 20260508100430 | 45 | 168 | 0.0 | 2.0 | 0.00 | 0.03 | 0.00 | 91 | 1012.7 |
| 20260508095150 | 45 | 200 | 0.0 | 0.0 | 0.00 | 0.03 | 0.00 | 91 | 1012.6 |
| 20260508093918 | 44 | 200 | 0.0 | 0.0 | 0.00 | 0.03 | 0.00 | 90 | 1012.8 |
| 20260508092728 | 45 | 200 | 0.0 | 0.0 | 0.00 | 0.03 | 0.00 | 90 | 1013.0 |
| 20260508091530 | 45 | 200 | 0.0 | 0.0 | 0.00 | 0.03 | 0.00 | 91 | 1013.0 |
| 20260508090328 | 44 | 200 | 0.0 | 0.0 | 0.00 | 0.03 | 0.00 | 90 | 1012.9 |
| 20260508085135 | 44 | 200 | 0.0 | 0.0 | 0.00 | 0.03 | 0.00 | 90 | 1012.9 |
| 20260508083857 | 44 | 200 | 0.0 | 0.0 | 0.00 | 0.03 | 0.00 | 90 | 1012.8 |
| 20260508082644 | 44 | 200 | 0.0 | 1.0 | 0.00 | 0.03 | 0.00 | 91 | 1012.9 |
| 20260508081426 | 44 | 200 | 0.0 | 1.0 | 0.00 | 0.03 | 0.00 | 90 | 1012.8 |
| 20260508080214 | 44 | 200 | 0.0 | 0.0 | 0.00 | 0.03 | 0.00 | 90 | 1012.9 |
| 20260508074933 | 44 | 225 | 0.0 | 2.0 | 0.00 | 0.03 | 0.00 | 90 | 1012.8 |
| 20260508073747 | 44 | 241 | 0.0 | 0.0 | 0.00 | 0.03 | 0.00 | 90 | 1012.8 |
| 20260508072609 | 43 | 118 | 0.0 | 0.0 | 0.00 | 0.03 | 0.00 | 90 | 1012.7 |
| 20260508071403 | 43 | 131 | 0.0 | 1.0 | 0.00 | 0.03 | 0.00 | 90 | 1012.8 |
| 20260508070157 | 43 | 131 | 0.0 | 1.0 | 0.00 | 0.03 | 0.00 | 90 | 1012.9 |
| 20260508063748 | 43 | 131 | 0.0 | 2.0 | 0.00 | 0.03 | 0.00 | 90 | 1013.1 |
| 20260508062617 | 43 | 267 | 0.0 | 0.0 | 0.00 | 0.03 | 0.00 | 90 | 1013.2 |
| 20260508061424 | 43 | 267 | 0.0 | 0.0 | 0.00 | 0.03 | 0.00 | 89 | 1013.1 |
| 20260508060253 | 43 | 267 | 0.0 | 1.0 | 0.00 | 0.03 | 0.00 | 90 | 1013.2 |
| 20260508055039 | 44 | 267 | 0.0 | 0.0 | 0.00 | 0.03 | 0.00 | 90 | 1013.3 |
| 20260508053843 | 44 | 267 | 0.0 | 0.0 | 0.00 | 0.03 | 0.00 | 90 | 1013.5 |
| 20260508052708 | 44 | 267 | 0.0 | 0.0 | 0.00 | 0.03 | 0.00 | 90 | 1013.5 |
| 20260508051517 | 44 | 267 | 0.0 | 0.0 | 0.00 | 0.03 | 0.00 | 90 | 1013.5 |
| 20260508050314 | 44 | 267 | 0.0 | 0.0 | 0.00 | 0.03 | 0.00 | 89 | 1013.5 |
| 20260508045053 | 44 | 267 | 0.0 | 0.0 | 0.00 | 0.03 | 0.00 | 89 | 1013.5 |
| 20260508043829 | 45 | 267 | 0.0 | 0.0 | 0.00 | 0.03 | 0.00 | 89 | 1013.4 |
| 20260508042630 | 45 | 267 | 0.0 | 0.0 | 0.00 | 0.03 | 0.00 | 89 | 1013.5 |
| 20260508041437 | 45 | 267 | 0.0 | 0.0 | 0.00 | 0.03 | 0.00 | 89 | 1013.5 |
| 20260508040226 | 45 | 267 | 0.0 | 2.0 | 0.00 | 0.03 | 0.00 | 88 | 1013.5 |
| 20260508035025 | 46 | 267 | 0.0 | 0.0 | 0.00 | 0.03 | 0.03 | 88 | 1013.6 |
| 20260508033805 | 46 | 267 | 0.0 | 0.0 | 0.00 | 0.03 | 0.03 | 88 | 1013.5 |
| 20260508032632 | 46 | 267 | 0.0 | 0.0 | 0.00 | 0.03 | 0.03 | 88 | 1013.7 |
| 20260508031421 | 47 | 267 | 0.0 | 0.0 | 0.00 | 0.03 | 0.03 | 87 | 1013.8 |
| 20260508030150 | 47 | 267 | 0.0 | 2.0 | 0.00 | 0.03 | 0.03 | 86 | 1014.1 |
| 20260508025005 | 48 | 267 | 0.0 | 0.0 | 0.04 | 0.03 | 0.03 | 84 | 1014.1 |
| 20260508023757 | 49 | 258 | 1.0 | 0.0 | 0.04 | 0.02 | 0.02 | 82 | 1014.1 |
| 20260508022551 | 50 | 56 | 0.0 | 3.0 | 0.20 | 0.02 | 0.02 | 80 | 1014.0 |
| 20260508021330 | 52 | 348 | 1.0 | 7.0 | 0.00 | 0.00 | 0.00 | 74 | 1014.0 |
| 20260508020053 | 51 | 209 | 0.0 | 6.0 | 0.00 | 0.00 | 0.00 | 73 | 1012.9 |
| 20260508014822 | 51 | 121 | 0.0 | 7.0 | 0.00 | 0.00 | 0.00 | 74 | 1012.7 |
| 20260508013601 | 50 | 152 | 0.0 | 0.0 | 0.00 | 0.00 | 0.00 | 75 | 1012.5 |
| 20260508012406 | 50 | 58 | 0.0 | 2.0 | 0.00 | 0.00 | 0.00 | 74 | 1012.4 |
| 20260508011236 | 50 | 174 | 0.0 | 4.0 | 0.00 | 0.00 | 0.00 | 73 | 1012.5 |
| 20260508010036 | 50 | 149 | 0.0 | 4.0 | 0.00 | 0.00 | 0.00 | 72 | 1012.8 |
| 20260508004813 | 51 | 142 | 0.0 | 2.0 | 0.00 | 0.00 | 0.00 | 71 | 1013.0 |
| 20260508003618 | 52 | 165 | 0.0 | 8.0 | 0.00 | 0.00 | 0.00 | 67 | 1012.9 |
| 20260508002428 | 52 | 114 | 0.0 | 8.0 | 0.00 | 0.00 | 0.00 | 67 | 1012.9 |
| 20260508001237 | 53 | 127 | 0.0 | 4.0 | 0.00 | 0.00 | 0.00 | 64 | 1013.0 |
| 20260508000041 | 53 | 119 | 0.0 | 4.0 | 0.00 | 0.00 | 0.00 | 64 | 1013.2 |
| 20260507234858 | 54 | 65 | 1.0 | 9.0 | 0.00 | 0.00 | 0.00 | 65 | 1013.3 |
| 20260507233726 | 54 | 119 | 1.0 | 9.0 | 0.00 | 0.00 | 0.00 | 61 | 1013.4 |
| 20260507232452 | 54 | 127 | 1.0 | 8.0 | 0.00 | 0.00 | 0.00 | 59 | 1013.4 |
| 20260507231248 | 54 | 35 | 1.0 | 6.0 | 0.00 | 0.00 | 0.00 | 60 | 1013.3 |
| 20260507230010 | 55 | 250 | 0.0 | 3.0 | 0.00 | 0.00 | 0.00 | 58 | 1013.5 |
| 20260507224748 | 55 | 26 | 0.0 | 4.0 | 0.00 | 0.00 | 0.00 | 56 | 1013.6 |
| 20260507223523 | 55 | 267 | 1.0 | 9.0 | 0.00 | 0.00 | 0.00 | 56 | 1013.8 |
| 20260507222321 | 55 | 229 | 0.0 | 8.0 | 0.00 | 0.00 | 0.00 | 58 | 1014.1 |
| 20260507221105 | 55 | 13 | 1.0 | 14.0 | 0.00 | 0.00 | 0.00 | 57 | 1014.2 |
| 20260507215903 | 55 | 348 | 1.0 | 6.0 | 0.00 | 0.00 | 0.00 | 58 | 1014.3 |
| 20260507214732 | 55 | 351 | 0.0 | 3.0 | 0.00 | 0.00 | 0.00 | 59 | 1014.2 |
| 20260507213455 | 55 | 302 | 0.0 | 0.0 | 0.00 | 0.00 | 0.00 | 59 | 1014.2 |
| 20260507212219 | 55 | 309 | 0.0 | 6.0 | 0.00 | 0.00 | 0.00 | 57 | 1014.1 |
| 20260507210957 | 56 | 9 | 0.0 | 11.0 | 0.00 | 0.00 | 0.00 | 56 | 1014.2 |
| 20260507205748 | 57 | 342 | 0.0 | 9.0 | 0.00 | 0.00 | 0.00 | 50 | 1014.1 |
| 20260507204536 | 57 | 317 | 0.0 | 6.0 | 0.00 | 0.00 | 0.00 | 49 | 1013.8 |
| 20260507203407 | 58 | 245 | 1.0 | 9.0 | 0.00 | 0.00 | 0.00 | 43 | 1013.7 |